Location: Melbourne
(37.8170°S, 144.9670°E)
Time: 15:29:14
(UTC+10:00)

ERBS - Visible Passes

Search period start: 29 June 2017 00:00
Search period end: 09 July 2017 00:00
Orbit: 424 x 446 km, 57.0° (Epoch: 28 June)

Date Brightness Start Highest point End Pass type
(mag) Time Alt. Az. Time Alt. Az. Time Alt. Az.
03 Jul 5.1 06:34:19 10° S 06:35:33 11° SSE 06:36:47 10° SE visible
05 Jul 4.1 06:45:27 10° SSW 06:48:38 29° SE 06:51:46 10° ENE visible
06 Jul 4.6 06:04:26 13° S 06:06:27 19° SE 06:09:07 10° E visible
07 Jul 5.1 05:24:05 14° SSE 05:24:13 14° SSE 05:26:08 10° ESE visible
07 Jul 2.4 06:57:44 10° SW 07:01:18 75° NW 07:04:51 10° NE visible
08 Jul 2.8 06:17:07 22° SSW 06:19:16 62° SE 06:22:48 10° NE visible
